Location: Newark
(25.0000°N, 73.5000°E)
Time: 02:22:27
(UTC+00:00)

Transit 2A Rocket - Pass Details

Date: 09 August 2021
Orbit: 586 x 917 km, 66.7° (Epoch: 24 September)

Event Time Altitude Azimuth Distance (km) Brightness Sun altitude
Rises 15:18:30 0° 1° (N) 3,392 8.7 -20.2°
Reaches altitude 10° 15:22:06 10° 24° (NNE) 2,513 7.7 -20.9°
Maximum altitude 15:25:20 15° 58° (ENE) 2,214 7.1 -21.5°
Enters shadow 15:25:21 15° 58° (ENE) 2,215 7.1 -21.5°
